KORSKHQM

Guest
Details From KORS - Orcas Island
To KHQM - Bowerman
Flight Number -
Tags Generated
Created
Modified
Stats Distance 113 nm / 209 km
Max Altitude 0 ft / 0 m
Waypoints 2
Social Downloads 1
Likes 0
Share VATSIM

Download

Looking for another format? Having issues loading an existing format? Contact us
Advertisement - Login to hide

Notes

Generated

Route

KORS KHQM

ID Type Via Altitude Latitude Longitude Leg Dist Tot Dist Heading (true) Name
O KORS APT - 0 ft / 0 m 48.71228˚ -122.91058˚ - 0 nm - Orcas Island
O KHQM APT - 0 ft / 0 m 46.96999˚ -123.94642˚ 112 nm 112 nm 202° / 201° -

Altitude Profile

Advertisement - Login to hide

KORS

Details ICAO KORS (ESD)
Name Orcas Island
Region United States
Timezone America/Los_Angeles (UTC-7.0)
Stats Elevation 25 ft / 8 m (AMSL)
Location 48.708318° -122.910606°
Runways 1
Magnetic Variation 16.031° E

METAR

KORS 270755Z AUTO 18005KT 10SM BKN070 12/05 A3020 RMK AO2

Decode

TAF

Not found

Departure Runways

ID Width Length Bearing (true) Bearing (mag) Surface Threshold Offset Overrun Length
16 59 ft / 18 m 2,895 ft / 882 m 180.23° 164.20° Asphalt 0 ft / 0 m 240 ft / 73 m
34 59 ft / 18 m 2,895 ft / 882 m 0.23° 344.20° Asphalt 0 ft / 0 m 259 ft / 79 m

KHQM

Details ICAO KHQM
Name BOWERMAN
Region United States
Timezone America/Los_Angeles (UTC-7.0)
Stats Elevation 18 ft / 5 m (AMSL)
Location 46.971196° -123.936564°
Runways 1
Magnetic Variation 15.778° E

METAR

KHQM 270753Z AUTO 29005KT 9SM CLR 12/10 A3026 RMK AO2 SLP251 T01170100 401670117

Decode

TAF

TAF KHQM 270520Z 2706/2806 27006KT P6SM SCT250 FM271100 VRB04KT P6SM SCT012 TEMPO 2714/2717 BKN010 FM271900 25011KT P6SM SCT250 FM280100 25012KT P6SM OVC015 FM280400 26008KT P6SM OVC009

Decode

Destination Runways

ID Width Length Bearing (true) Bearing (mag) Surface Threshold Offset Overrun Length
06 151 ft / 46 m 4,987 ft / 1,520 m 79.79° 64.01° Asphalt 0 ft / 0 m 0 ft / 0 m
24 151 ft / 46 m 4,987 ft / 1,520 m 259.81° 244.03° Asphalt 0 ft / 0 m 0 ft / 0 m

Approach Navaids

Runway Type Ident Frequency Range Bearing (true) Bearing (mag) Slope Elevation
24 Localiser IHQM 108.70 MHz 18 nm / 33 km 259.79° 244.02° - 18 ft / 5 m (AMSL)
24 Glidescope IHQM 108.70 MHz 10 nm / 19 km 259.80° 244.02° 3.00° 18 ft / 5 m (AMSL)
24 DME IHQM 108.70 MHz 18 nm / 33 km - - - 18 ft / 5 m (AMSL)

Popular Alternatives